This demonstration page uses our WeatherBlox Daily Observations layout. Learn more.

Left ArrowRight Arrow

38.20091, -84.87328

Hourly Observations for February 25, 2022

Temp ( °F °C ) Dew Point ( °F °C ) Humidity (%) Winds ( mph kmh ) Pressure ( in mb ) Visibility ( mi km ) Precip ( " mm )
12:02 am 00:02 Cloudy with Mist and Fog 42 5.6 41 5 96 96 SW 5 7 29.97 1015 3 4 0.00 0.00
12:24 am 00:24 Cloudy with Light Rain 42 5.6 41 5 96 96 W 5 7 29.98 1015 4 6 0.02 0.51
12:53 am 00:53 Cloudy with Rain 43 6.1 41 5 93 93 WSW 8 13 29.97 1015 3 5 0.08 2.03
12:57 am 00:57 Cloudy with Rain 43 6.1 41 5 93 93 W 6 9 29.99 1016 3 4 0.02 0.51
1:07 am 01:07 Cloudy with Light Rain 42 5.6 41 5 96 96 W 9 15 30.00 1016 3 5 0.04 1.02
1:46 am 01:46 Cloudy with Light Rain 40 4.4 38 3.3 93 93 W 9 15 30.03 1017 4 6 0.10 2.54
1:53 am 01:53 Cloudy with Light Rain 40 4.4 38 3.3 93 93 WSW 8 13 30.01 1016 5 8 0.11 2.79
2:53 am 02:53 Cloudy with Light Rain 39 3.9 37 2.8 93 93 W 8 13 30.03 1017 4 6 0.06 1.52
3:53 am 03:53 Cloudy with Light Rain 38 3.3 35 1.7 89 89 W 16 26 30.07 1018 10 16 0.01 0.25
4:49 am 04:49 Cloudy 36 2 34 1 93 93 W 10 17 30.13 1020 10 16 0.00 0.00
4:53 am 04:53 Cloudy 36 2.2 34 1.1 93 93 W 7 11 30.12 1020 10 16 0.00 0.00
5:02 am 05:02 Cloudy 36 2.2 33 0.6 89 89 W 10 17 30.14 1021 10 16 0.00 0.00
5:14 am 05:14 Cloudy 36 2.2 33 0.6 89 89 W 12 19 30.16 1021 10 16 0.00 0.00
5:53 am 05:53 Cloudy 35 1.7 32 0 89 89 WNW 14 22 30.19 1022 10 16 0.00 0.00
6:53 am 06:53 Cloudy 35 1.7 30 -1.1 82 82 WNW 12 19 30.25 1024 10 16 0.00 0.00
7:39 am 07:39 Cloudy 34 1.1 30 -1.1 85 85 W 8 13 30.31 1026 10 16 0.00 0.00
7:53 am 07:53 Cloudy 34 1.1 30 -1.1 85 85 W 9 15 30.29 1026 10 16 0.00 0.00
8:00 am 08:00 Cloudy 34 1.1 30 -1.1 85 85 W 8 13 30.32 1027 10 16 0.00 0.00
8:31 am 08:31 Cloudy 34 1.1 29 -1.7 82 82 WNW 8 13 30.34 1027 10 16 0.00 0.00
8:53 am 08:53 Cloudy 34 1.1 29 -1.7 82 82 WNW 8 13 30.34 1027 10 16 0.00 0.00
9:43 am 09:43 Cloudy 34 1.1 28 -2.2 79 79 WNW 12 19 30.38 1029 10 16 0.00 0.00
9:53 am 09:53 Cloudy 34 1.1 28 -2.2 79 79 WNW 8 13 30.37 1028 10 16 0.00 0.00
10:53 am 10:53 Cloudy 34 1.1 27 -2.8 76 76 WNW 8 13 30.40 1029 10 16 0.00 0.00
11:53 am 11:53 Cloudy 34 1.1 26 -3.3 73 73 NW 9 15 30.42 1030 10 16 0.00 0.00
12:53 pm 12:53 Cloudy 34 1.1 26 -3.3 73 73 W 9 15 30.43 1031 10 16 0.00 0.00
1:53 pm 13:53 Cloudy 33 0.6 25 -3.9 72 72 WNW 6 9 30.43 1030 10 16 0.00 0.00
2:53 pm 14:53 Cloudy 34 1.1 26 -3.3 73 73 NW 6 9 30.43 1031 10 16 0.00 0.00
3:53 pm 15:53 Cloudy 33 0.6 25 -3.9 72 72 NW 6 9 30.45 1031 10 16 0.00 0.00
4:53 pm 16:53 Cloudy 33 0.6 25 -3.9 72 72 NW 5 7 30.46 1032 10 16 0.00 0.00
5:53 pm 17:53 Cloudy 33 0.6 26 -3.3 75 75 NNW 6 9 30.48 1032 10 16 0.00 0.00
6:53 pm 18:53 Cloudy 32 0 25 -3.9 75 75 NNW 3 6 30.50 1033 10 16 0.00 0.00
7:53 pm 19:53 Cloudy 32 0 25 -3.9 75 75 Calm 30.50 1033 10 16 0.00 0.00
8:53 pm 20:53 Cloudy 32 0 24 -4.4 73 73 NNW 5 7 30.50 1033 10 16 0.00 0.00
9:53 pm 21:53 Cloudy 32 0 25 -3.9 75 75 NW 5 7 30.51 1033 10 16 0.00 0.00
10:53 pm 22:53 Cloudy 31 -0.6 23 -5 72 72 WNW 5 7 30.52 1034 10 16 0.00 0.00
11:53 pm 23:53 Cloudy 31 -0.6 23 -5 72 72 WNW 6 9 30.53 1034 10 16 0.00 0.00

Powered by AerisWeather